CAPE
0 0 0 0 0 0 0 0 0 0 0 0 0 0 0 48 540 659 955 1196 1009 923 679 895 774 665 573 470 287 314 275 485 257 87 13 0 0 0 0 20 46 83 105 113
0 0 0 0 0 0 0 0 0 0 0 0 0 0 0 4 175 393 735 991 763 730 501 418 507 497 433 380 330 420 472 533 195 0 0 0 0 0 19 57 89 77 86 136
0 0 0 0 0 0 0 0 0 0 0 0 0 0 0 0 0 19 254 781 719 654 372 242 248 300 356 393 500 510 760 651 154 0 1 4 29 39 51 70 82 82 61 67
0 0 0 0 0 0 0 0 0 0 0 0 0 0 0 0 0 11 88 251 233 220 261 216 212 176 276 364 198 110 303 189 35 0 0 33 39 52 47 16 6 17 10 18
0 0 0 0 0 0 0 0 0 0 0 0 0 0 0 0 0 0 41 147 157 160 161 91 3 0 0 0 0 0 0 0 0 0 0 0 0 0 0 0 4 35 20 1
0 0 0 0 0 0 0 0 0 0 0 0 0 0 0 0 0 0 0 32 72 39 0 0 0 0 0 0 0 0 0 0 0 0 0 0 0 0 0 0 0 0 0 0
0 0 0 0 0 0 0 0 0 0 0 0 0 0 0 0 0 0 0 2 3 0 0 0 0 0 0 0 0 0 0 0 0 0 0 0 0 0 0 0 0 3 1 0
0 0 0 0 0 0 0 0 0 0 0 0 0 0 0 0 0 0 0 0 0 0 0 0 0 0 0 0 0 0 0 0 0 0 0 0 0 0 0 1 3 2 3 3
0 0 0 0 0 0 0 0 0 0 0 0 0 0 0 0 0 0 0 0 0 0 0 0 0 0 0 0 0 0 0 0 0 0 0 0 0 0 2 3 5 3 2 1
0 0 0 0 0 0 0 0 0 0 0 0 0 0 0 0 0 0 0 0 0 0 0 0 0 0 0 0 0 0 0 0 0 0 0 0 0 1 2 3 2 4 6 5
0 0 0 0 0 0 0 0 0 0 0 0 0 0 0 0 0 0 0 0 0 0 0 0 0 0 0 0 0 0 0 0 0 2 3 2 2 4 6 2 0 0 0 2
0 0 0 0 0 0 0 0 0 0 0 0 0 0 0 0 0 0 0 0 0 0 0 0 0 0 0 0 0 0 0 0 3 7 10 12 13 9 6 0 1 1 1 1
0 0 0 0 0 0 0 0 0 0 0 0 0 0 0 0 0 0 0 0 0 0 0 0 0 0 0 0 0 0 0 1 4 10 5 15 12 12 4 3 8 4 1 1
0 0 0 0 0 0 0 0 0 0 0 0 0 0 0 0 0 0 0 0 0 0 0 0 0 0 0 0 0 0 0 4 9 7 10 13 16 16 14 13 2 3 3 5
0 0 0 0 0 0 0 0 0 0 0 0 0 0 0 0 0 0 0 0 0 0 0 0 0 0 0 0 0 0 2 6 8 8 2 12 10 4 6 11 2 4 5 7
0 0 0 0 0 0 0 0 0 0 0 0 0 0 0 0 0 0 0 0 0 0 0 0 0 0 0 0 0 0 1 6 9 4 2 3 5 8 10 1 3 4 5 5
0 0 0 0 0 0 0 0 0 0 0 0 0 0 0 0 0 0 0 0 0 0 0 0 0 0 0 0 0 0 3 6 11 9 6 5 8 11 3 2 4 3 4 10
0 0 0 0 0 0 0 0 0 0 0 0 0 0 0 0 0 0 0 0 0 0 0 0 0 0 0 0 0 1 2 4 8 12 9 7 9 7 2 4 5 4 7 15
0 0 0 0 0 0 0 0 0 0 0 0 0 0 0 0 0 0 0 0 0 0 0 0 0 0 0 1 1 4 3 8 7 12 12 14 13 5 3 4 5 9 10 5
0 0 0 0 0 0 0 0 0 0 0 0 0 0 0 0 0 0 0 0 0 0 0 0 0 0 0 1 2 4 10 5 9 18 15 15 8 4 3 3 5 8 9 16
0 0 0 0 0 0 0 0 0 29 86 0 0 0 0 0 0 0 0 0 0 0 0 0 0 0 0 2 5 10 2 6 6 15 12 10 7 3 2 5 3 15 18 28
27 0 0 0 0 0 0 0 0 164 0 0 0 0 0 0 0 0 0 0 0 0 0 0 0 0 1 2 9 6 2 13 8 15 10 11 10 8 4 3 4 13 24 14
0 18 73 40 15 10 0 18 0 0 0 0 0 0 0 0 0 0 0 0 0 0 0 0 0 0 2 4 10 3 13 13 12 9 7 9 9 6 2 3 4 10 8 7
0 0 2 4 49 0 0 0 0 0 0 0 0 0 0 0 0 0 0 0 0 0 0 0 0 0 4 7 8 5 4 11 11 8 8 12 10 3 2 2 3 10 9 3
5 0 27 18 19 0 0 0 15 2 0 0 0 0 0 0 0 0 0 0 0 0 0 0 0 4 8 10 1 0 2 8 10 7 7 10 6 4 2 2 3 1 5 1
0 49 74 69 227 140 140 26 0 0 0 0 0 0 0 0 0 0 0 0 0 0 0 0 1 10 8 1 2 3 2 7 13 9 7 7 6 4 2 2 2 0 0 0
CIN
-0 -0 -0 -0 -0 -0 -0 -0 -0 -0 -0 -0 -0 -0 -0 -278 -190 -182 -134 -91 -82 -83 -103 -107 -151 -187 -179 -174 -196 -155 -132 -79 -88 -79 -105 -0 -0 -0 -0 -103 -108 -90 -75 -69
-0 -0 -0 -0 -0 -0 -0 -0 -0 -0 -0 -0 -0 -0 -0 -268 -230 -185 -137 -82 -87 -83 -104 -120 -129 -146 -144 -143 -129 -97 -57 -65 -78 -0 -0 -0 -0 -0 -113 -128 -128 -126 -124 -94
-0 -0 -0 -0 -0 -0 -0 -0 -0 -0 -0 -0 -0 -0 -0 -0 -0 -312 -209 -65 -67 -76 -99 -124 -145 -139 -126 -103 -52 -50 -46 -62 -114 -0 -20 -47 -78 -82 -35 -28 -39 -80 -130 -138
-0 -0 -0 -0 -0 -0 -0 -0 -0 -0 -0 -0 -0 -0 -0 -0 -0 -227 -188 -139 -130 -130 -129 -143 -149 -140 -102 -62 -90 -112 -92 -115 -116 -0 -7 -102 -75 -59 -53 -88 -97 -120 -137 -138
-0 -0 -0 -0 -0 -0 -0 -0 -0 -0 -0 -0 -0 -0 -0 -0 -0 -0 -208 -145 -106 -92 -99 -122 -60 -0 -0 -0 -0 -0 -0 -0 -0 -0 -0 -0 -0 -0 -0 -0 -89 -86 -85 -123
-0 -0 -0 -0 -0 -0 -0 -0 -0 -0 -0 -0 -0 -0 -0 -0 -0 -0 -0 -145 -117 -100 -0 -0 -0 -0 -0 -0 -0 -0 -0 -0 -0 -0 -0 -0 -0 -0 -0 -0 -0 -0 -0 -0
-0 -0 -0 -0 -0 -0 -0 -0 -0 -0 -0 -0 -0 -0 -0 -0 -0 -0 -0 -12 -15 -0 -0 -0 -0 -0 -0 -0 -0 -0 -0 -0 -0 -0 -0 -0 -0 -0 -0 -0 -0 -0 -0 -0
-0 -0 -0 -0 -0 -0 -0 -0 -0 -0 -0 -0 -0 -0 -0 -0 -0 -0 -0 -0 -0 -0 -0 -0 -0 -0 -0 -0 -0 -0 -0 -0 -0 -0 -0 -0 -0 -0 -0 -0 -0 -0 -0 -0
-0 -0 -0 -0 -0 -0 -0 -0 -0 -0 -0 -0 -0 -0 -0 -0 -0 -0 -0 -0 -0 -0 -0 -0 -0 -0 -0 -0 -0 -0 -0 -0 -0 -0 -0 -0 -0 -0 -0 -0 -0 -0 -0 -0
-0 -0 -0 -0 -0 -0 -0 -0 -0 -0 -0 -0 -0 -0 -0 -0 -0 -0 -0 -0 -0 -0 -0 -0 -0 -0 -0 -0 -0 -0 -0 -0 -0 -0 -0 -0 -0 -0 -0 -0 -29 -25 -25 -37
-0 -0 -0 -0 -0 -0 -0 -0 -0 -0 -0 -0 -0 -0 -0 -0 -0 -0 -0 -0 -0 -0 -0 -0 -0 -0 -0 -0 -0 -0 -0 -0 -0 -0 -0 -0 -0 -0 -0 -0 -0 -0 -0 -0
-0 -0 -0 -0 -0 -0 -0 -0 -0 -0 -0 -0 -0 -0 -0 -0 -0 -0 -0 -0 -0 -0 -0 -0 -0 -0 -0 -0 -0 -0 -0 -0 -0 -0 -0 -0 -0 -0 -0 -0 -0 -0 -0 -0
-0 -0 -0 -0 -0 -0 -0 -0 -0 -0 -0 -0 -0 -0 -0 -0 -0 -0 -0 -0 -0 -0 -0 -0 -0 -0 -0 -0 -0 -0 -0 -0 -0 -0 -0 -0 -0 -0 -0 -0 -0 -0 -0 -0
-0 -0 -0 -0 -0 -0 -0 -0 -0 -0 -0 -0 -0 -0 -0 -0 -0 -0 -0 -0 -0 -0 -0 -0 -0 -0 -0 -0 -0 -0 -0 -0 -0 -0 -0 -0 -0 -0 -0 -0 -0 -0 -0 -0
-0 -0 -0 -0 -0 -0 -0 -0 -0 -0 -0 -0 -0 -0 -0 -0 -0 -0 -0 -0 -0 -0 -0 -0 -0 -0 -0 -0 -0 -0 -0 -0 -0 -0 -0 -0 -0 -0 -0 -0 -1 -0 -0 -0
-0 -0 -0 -0 -0 -0 -0 -0 -0 -0 -0 -0 -0 -0 -0 -0 -0 -0 -0 -0 -0 -0 -0 -0 -0 -0 -0 -0 -0 -0 -0 -0 -0 -0 -0 -0 -0 -0 -0 -1 -0 -0 -0 -0
-0 -0 -0 -0 -0 -0 -0 -0 -0 -0 -0 -0 -0 -0 -0 -0 -0 -0 -0 -0 -0 -0 -0 -0 -0 -0 -0 -0 -0 -0 -0 -0 -0 -0 -0 -0 -0 -0 -0 -0 -0 -0 -0 -0
-0 -0 -0 -0 -0 -0 -0 -0 -0 -0 -0 -0 -0 -0 -0 -0 -0 -0 -0 -0 -0 -0 -0 -0 -0 -0 -0 -0 -0 -0 -0 -0 -0 -0 -0 -0 -0 -0 -0 -0 -0 -0 -0 -0
-0 -0 -0 -0 -0 -0 -0 -0 -0 -0 -0 -0 -0 -0 -0 -0 -0 -0 -0 -0 -0 -0 -0 -0 -0 -0 -0 -0 -0 -0 -0 -0 -0 -0 -0 -0 -0 -0 -0 -0 -0 -11 -4 -0
-0 -0 -0 -0 -0 -0 -0 -0 -0 -0 -0 -0 -0 -0 -0 -0 -0 -0 -0 -0 -0 -0 -0 -0 -0 -0 -0 -0 -0 -0 -0 -0 -0 -0 -0 -0 -0 -0 -0 -0 -0 -7 -0 -0
-0 -0 -0 -0 -0 -0 -0 -0 -0 -4 -8 -0 -0 -0 -0 -0 -0 -0 -0 -0 -0 -0 -0 -0 -0 -0 -0 -0 -0 -0 -0 -0 -0 -0 -0 -0 -0 -0 -0 -0 -0 -2 -0 -0
-41 -0 -0 -0 -0 -0 -0 -0 -0 -33 -0 -0 -0 -0 -0 -0 -0 -0 -0 -0 -0 -0 -0 -0 -0 -0 -0 -0 -0 -0 -0 -0 -3 -0 -2 -0 -0 -0 -0 -0 -13 -0 -0 -0
-0 -13 -24 -59 -24 -47 -0 -102 -0 -0 -0 -0 -0 -0 -0 -0 -0 -0 -0 -0 -0 -0 -0 -0 -0 -0 -0 -0 -0 -0 -0 -0 -3 -6 -0 -0 -0 -0 -0 -0 -0 -0 -0 -0
-0 -0 -11 -13 -72 -0 -0 -0 -0 -0 -0 -0 -0 -0 -0 -0 -0 -0 -0 -0 -0 -0 -0 -0 -0 -0 -0 -0 -0 -0 -0 -0 -2 -0 -0 -0 -0 -0 -0 -0 -0 -0 -0 -0
-12 -0 -87 -101 -134 -0 -0 -0 -132 -113 -0 -0 -0 -0 -0 -0 -0 -0 -0 -0 -0 -0 -0 -0 -0 -0 -0 -0 -0 -0 -0 -0 -2 -0 -0 -0 -0 -0 -0 -0 -0 -0 -0 -0
-0 -62 -33 -5 -18 -25 -18 -81 -0 -0 -0 -0 -0 -0 -0 -0 -0 -0 -0 -0 -0 -0 -0 -0 -0 -0 -0 -0 -0 -0 -0 -3 -5 -0 -0 -0 -0 -0 -0 -0 -0 -0 -0 -0
Wind_Speed
5 4 5 4 5 7 7 4 1 2 3 3 3 9 11 13 13 12 10 10 8 8 7 7 8 8 8 6 6 6 6 5 5 6 6 5 5 5 4 4 5 7 6 8
3 6 3 6 6 6 3 2 3 2 3 4 4 5 5 11 11 10 11 10 11 11 11 12 11 9 7 6 7 8 8 7 5 4 4 4 5 6 6 6 5 6 7 9
4 5 4 1 3 3 2 2 1 4 5 1 4 2 3 7 8 9 11 12 11 13 13 13 12 10 8 9 10 10 10 8 6 6 6 5 6 6 7 8 9 9 10 10
6 2 1 2 3 1 1 1 4 5 4 7 5 3 2 2 12 13 14 15 14 14 15 13 11 10 9 10 9 11 11 10 7 6 6 7 7 8 8 8 8 10 12 12
3 6 2 1 2 1 2 3 2 2 2 3 3 5 4 1 8 14 14 16 15 15 13 12 10 10 8 5 6 6 6 5 5 5 6 6 8 8 8 9 12 12 11 13
3 1 0 1 2 3 2 2 3 2 1 3 3 4 3 2 4 7 13 15 15 12 7 1 3 3 5 4 4 4 5 4 6 7 9 10 11 12 11 13 12 12 12 12
1 2 2 1 3 4 3 4 3 1 0 2 2 4 3 4 6 7 12 14 10 4 2 2 4 5 4 3 4 5 5 6 8 10 11 11 11 12 14 14 12 14 12 12
3 3 1 2 2 2 4 2 2 4 4 6 1 2 2 1 1 2 6 5 5 3 0 2 2 3 4 4 5 6 7 10 12 11 11 10 12 10 11 11 11 11 11 11
5 3 1 5 2 3 3 1 2 4 1 4 2 2 6 5 4 3 6 6 5 3 3 1 3 5 6 6 7 7 9 11 12 12 11 13 13 14 12 13 12 10 12 11
4 2 1 3 2 9 2 7 2 1 3 4 2 4 3 7 9 5 6 6 4 4 4 4 5 6 7 7 7 8 10 13 13 12 14 13 14 14 14 13 13 14 14 13
3 0 2 3 2 1 3 2 4 1 2 3 5 3 2 4 6 9 8 6 4 5 5 5 6 5 6 7 9 11 13 15 14 14 15 15 15 15 14 12 13 13 13 13
2 3 2 2 2 4 2 1 1 2 3 0 3 7 2 3 4 3 7 4 2 3 5 6 5 6 7 9 11 14 14 15 15 15 16 15 15 14 13 12 13 13 14 12
6 2 1 2 3 2 1 3 4 4 0 6 5 6 3 2 4 4 3 2 4 4 5 6 6 7 9 11 13 14 15 15 15 15 15 15 14 14 13 14 15 13 12 12
5 3 4 3 2 1 4 3 3 3 3 7 11 17 13 6 9 6 4 3 4 5 7 7 8 10 12 13 14 14 14 14 14 15 14 14 14 15 15 16 13 13 13 13
2 3 3 3 4 4 7 9 7 8 9 7 13 13 17 12 7 6 4 4 6 8 8 9 9 11 14 14 14 14 14 14 14 15 15 15 15 14 15 14 13 13 13 11
1 3 2 3 0 3 7 11 10 10 6 10 12 14 4 1 3 5 5 6 8 8 8 9 10 13 14 14 14 15 14 14 14 13 14 15 15 16 14 13 14 14 13 11
4 6 4 3 2 6 8 6 4 3 4 4 5 4 2 5 7 6 8 7 9 7 8 9 11 12 12 13 13 14 14 14 15 14 14 15 16 15 13 13 13 13 12 9
7 5 0 3 3 4 3 2 5 7 9 8 10 8 6 5 4 6 7 8 6 6 8 9 10 11 12 12 13 13 13 14 14 14 15 15 16 14 14 13 13 12 8 9
0 5 3 3 3 6 4 4 4 3 6 8 9 5 5 3 4 9 7 6 5 5 6 7 8 10 11 12 12 13 14 13 14 14 15 16 15 14 14 13 13 12 8 7
5 4 4 4 4 4 1 3 3 4 4 3 8 7 8 5 5 3 1 5 4 4 5 7 9 10 10 12 11 12 13 12 13 14 15 16 14 14 14 14 13 9 8 7
4 3 8 5 6 6 9 6 5 3 4 3 8 7 9 7 5 3 4 4 3 3 5 6 8 9 10 11 11 12 12 13 14 14 15 16 14 14 13 12 11 10 7 7
9 8 5 3 5 9 9 7 8 4 2 3 6 9 10 9 4 5 5 3 4 4 5 7 8 9 10 10 10 12 12 13 14 13 14 16 14 12 10 12 10 10 7 7
6 6 5 9 6 1 9 4 6 1 4 3 5 8 10 8 8 6 5 5 5 4 5 6 8 10 10 9 10 12 13 14 15 13 14 15 14 13 12 11 11 8 7 6
5 4 4 4 7 12 9 8 9 8 11 7 8 7 10 9 7 6 5 5 4 3 5 6 8 10 11 10 11 10 13 13 14 14 14 13 12 13 12 9 8 6 6 6
2 8 6 5 9 6 9 10 10 9 10 9 7 9 11 9 7 6 5 5 4 3 4 6 7 9 11 11 12 12 13 13 13 13 12 12 10 11 10 10 8 6 6 6
4 4 5 7 8 6 6 6 6 9 10 13 11 9 9 10 8 7 5 4 4 3 4 6 7 8 11 12 10 11 12 13 13 12 10 10 10 9 8 8 8 8 9 16
Wind_Direction
28 95 77 63 85 111 120 112 104 180 171 273 235 272 214 184 189 185 181 182 180 196 202 242 251 263 276 283 292 291 298 297 301 311 318 311 305 313 304 304 317 302 315 305
99 94 88 101 86 100 106 100 38 275 355 315 353 20 148 191 200 201 190 194 203 212 227 240 244 253 266 293 294 281 275 289 319 317 329 317 314 301 302 306 328 323 339 320
108 111 149 89 74 60 51 35 291 304 347 79 318 148 173 194 202 201 207 213 218 227 237 248 260 267 286 284 285 289 294 310 324 325 304 294 282 268 296 318 322 332 329 315
82 129 178 58 76 339 285 259 283 287 290 317 346 302 191 210 218 221 214 215 223 227 238 254 264 273 270 276 287 301 304 310 308 312 300 311 308 308 325 313 315 315 318 320
102 170 161 59 26 258 16 6 8 359 150 216 39 271 100 223 225 223 218 219 223 233 244 265 298 293 278 320 341 336 329 327 350 357 358 343 334 323 319 312 315 310 306 312
76 310 340 82 105 50 335 243 68 92 175 194 24 312 130 272 293 224 212 218 221 233 250 317 326 330 330 350 348 6 359 358 356 351 347 343 333 329 322 319 311 307 308 306
43 11 330 206 227 164 14 350 326 211 337 348 23 253 350 297 254 236 208 209 215 201 173 304 318 316 341 342 352 338 349 335 341 340 337 337 331 322 309 308 305 305 299 297
198 208 343 10 12 353 49 349 311 310 311 324 199 232 67 223 350 294 252 202 144 142 42 292 310 330 325 326 319 315 330 329 333 328 325 318 311 305 302 299 301 295 296 295
175 233 17 41 58 325 126 251 56 113 120 259 307 227 242 209 199 165 137 141 139 150 157 268 261 278 301 299 300 316 324 320 319 319 316 315 313 308 300 295 293 291 292 290
162 216 66 97 139 58 292 125 213 114 286 293 228 269 290 217 222 190 178 174 172 173 213 257 289 286 278 285 302 304 315 325 320 314 316 315 312 307 302 296 293 292 292 293
125 141 121 237 22 306 155 185 67 47 309 285 301 304 176 264 284 248 206 186 190 204 224 284 302 303 283 291 307 319 325 323 315 317 316 311 308 305 297 292 288 286 288 288
42 105 255 358 354 290 343 26 178 227 186 147 309 285 162 281 306 236 182 187 200 226 280 299 308 311 300 309 318 323 323 316 316 316 311 306 304 301 298 289 289 288 282 281
175 55 310 182 170 140 173 119 104 93 56 210 265 266 156 224 221 198 204 234 243 258 293 308 303 308 311 315 321 322 321 316 315 315 315 312 308 306 298 295 294 287 282 273
95 129 199 250 304 304 256 197 204 234 240 285 252 290 288 274 236 212 228 256 285 288 304 307 307 314 314 322 325 324 320 316 317 319 316 312 314 315 308 303 294 283 279 275
96 187 208 261 245 234 267 268 249 235 255 250 292 285 291 307 244 231 264 261 285 292 299 311 310 313 320 327 327 322 319 321 324 326 319 312 316 310 303 301 294 287 284 275
55 150 189 262 329 240 276 278 261 253 258 255 277 282 318 302 210 224 256 269 281 290 301 307 311 319 326 327 323 323 324 325 326 320 318 319 312 306 306 302 297 291 286 279
152 150 175 275 332 310 267 236 212 238 212 247 269 331 228 223 234 251 267 270 272 285 300 306 317 323 321 321 322 321 324 329 323 322 314 310 311 307 307 302 297 296 292 285
139 122 141 297 303 244 60 206 282 260 278 232 262 257 238 252 257 270 267 271 268 282 293 308 319 318 319 319 322 323 328 327 321 317 314 316 318 312 306 303 300 300 296 295
216 140 134 262 246 317 225 191 185 182 285 227 243 245 218 218 297 276 254 232 261 275 296 309 318 313 314 319 326 323 322 324 322 317 318 317 317 307 306 305 301 300 297 300
89 73 222 168 232 260 246 164 155 166 277 219 214 228 201 173 264 337 224 199 223 247 301 312 321 315 314 328 325 317 324 328 321 325 315 316 311 306 307 306 303 302 295 298
157 160 221 205 240 270 246 156 159 224 254 201 207 218 185 208 243 100 166 190 210 274 299 318 314 316 324 326 323 319 325 323 325 317 314 318 314 310 308 309 309 304 307 301
186 171 190 171 224 260 154 130 196 215 197 236 210 216 212 228 208 212 207 206 219 263 302 322 317 325 328 328 323 323 324 328 323 318 316 319 317 317 317 316 313 315 318 306
205 208 188 196 215 81 205 233 220 170 271 227 230 219 216 219 219 203 211 208 227 266 308 319 321 323 327 332 328 324 325 329 326 323 320 322 319 322 324 322 322 329 330 331
218 161 213 161 230 241 233 241 244 232 235 235 237 228 199 210 197 197 207 204 226 262 305 319 322 325 328 338 334 328 327 329 329 327 323 322 322 325 327 327 332 338 349 345
350 163 187 239 268 265 253 236 248 247 239 241 231 215 213 201 184 193 202 206 217 264 298 314 326 326 333 338 337 336 337 337 334 327 326 327 325 327 329 333 337 351 21 1
195 202 207 247 237 222 229 210 227 230 232 236 221 208 207 200 182 181 184 187 193 249 304 316 327 332 339 335 339 341 341 335 333 329 331 328 322 330 335 336 342 350 52 32